time_stamp(utc),avg(mph),gust(mph),direction(deg),12m_air_temp(f),sonic_u(cm/s),sonic_v(cm/s),sonic_w(cm/s),pressure,2m_air_temp(f),pyranometer(W/m^2)
"2017-11-16 00:02:42+00",13.5,14.5,,52.6,559,-205,-4,1018.84,51.8,0
"2017-11-16 00:07:42+00",16.0,18.0,,52.7,677,-247,1,1018.71,51.8,0
"2017-11-16 00:12:42+00",14.1,16.1,,52.5,568,-239,3,1018.68,51.8,0
"2017-11-16 00:17:42+00",15.7,16.7,,52.6,657,-241,-3,1018.65,51.8,0
"2017-11-16 00:22:42+00",16.3,18.3,,52.6,670,-262,-5,1018.53,51.8,0
"2017-11-16 00:27:42+00",16.5,19.5,,52.8,629,-375,-8,1018.54,51.8,0
"2017-11-16 00:32:42+00",13.9,15.9,,52.7,563,-265,8,1018.41,51.9,0
"2017-11-16 00:37:42+00",14.8,16.8,,52.7,616,-237,10,1018.2,51.9,0
"2017-11-16 00:42:42+00",15.2,17.2,,52.8,596,-305,4,1018.21,51.9,0
"2017-11-16 00:47:42+00",17.6,19.6,,53,670,-402,3,1018.13,52,0
"2017-11-16 00:52:42+00",18.7,20.7,,53,721,-422,-9,1018.07,52,0
"2017-11-16 00:57:42+00",17.3,21.3,,52.9,678,-366,4,1018.03,52.1,0
"2017-11-16 01:02:42+00",17.3,21.3,,52.9,650,-424,-1,1017.93,52.1,0
"2017-11-16 01:07:42+00",15.4,19.4,,52.9,566,-377,21,1017.9,52,0
"2017-11-16 01:12:42+00",15.8,18.8,,52.9,567,-385,-7,1018,52,0
"2017-11-16 01:17:42+00",17.7,21.7,,52.9,660,-425,4,1017.85,51.9,0
"2017-11-16 01:22:42+00",17.8,20.8,,53,666,-426,6,1017.92,51.9,0
"2017-11-16 01:27:42+00",15.8,17.8,,53,581,-382,22,1017.94,51.9,0
"2017-11-16 01:32:42+00",18.1,21.1,,53,654,-478,-2,1017.87,51.9,0
"2017-11-16 01:37:42+00",19.8,22.8,,53.2,758,-435,-4,1017.73,52,0
"2017-11-16 01:42:42+00",17.4,19.4,,53.1,620,-437,7,1017.58,52,0
"2017-11-16 01:47:42+00",18.2,23.2,,53.1,651,-472,6,1017.54,52.1,0
"2017-11-16 01:52:42+00",16.0,19.0,,53.2,604,-375,17,1017.59,52.2,0
"2017-11-16 01:57:42+00",15.4,19.4,,53.1,564,-367,16,1017.53,52.1,0
"2017-11-16 02:02:42+00",18.4,21.4,,53.4,676,-444,-9,1017.47,52.2,0
"2017-11-16 02:07:42+00",17.5,20.5,,53.4,610,-454,1,1017.51,52.2,0
"2017-11-16 02:12:42+00",17.1,20.1,,53.6,598,-438,1,1017.49,52.3,0
"2017-11-16 02:17:42+00",15.5,18.5,,53.6,580,-381,-7,1017.43,52.4,0
"2017-11-16 02:22:42+00",18.5,21.5,,53.8,669,-479,1,1017.26,52.6,0
"2017-11-16 02:27:42+00",14.3,17.3,,53.8,492,-382,20,1017.23,52.7,0
"2017-11-16 02:32:42+00",18.1,21.1,,54,581,-539,-1,1017.25,52.9,0
"2017-11-16 02:37:42+00",14.6,16.6,,53.9,458,-451,-11,1017.21,52.9,0
"2017-11-16 02:42:42+00",13.6,15.6,,54,431,-401,2,1017.26,53,0
"2017-11-16 02:47:42+00",16.0,19.0,,54.1,498,-498,-2,1017.27,53.1,0
"2017-11-16 02:52:42+00",14.4,16.4,,54.2,364,-503,-7,1017.18,53.2,0
"2017-11-16 02:57:42+00",13.2,15.2,,54.2,323,-469,11,1017.06,53.2,0
"2017-11-16 03:02:42+00",13.7,14.7,,54.3,335,-490,-8,1016.95,53.4,0
"2017-11-16 03:07:42+00",13.7,15.7,,54.2,320,-503,-11,1016.9,53.3,0
"2017-11-16 03:12:42+00",13.9,16.9,,54.3,294,-538,-9,1016.81,53.3,0
"2017-11-16 03:17:42+00",13.0,16.0,,54.2,256,-495,2,1016.77,53.2,0
"2017-11-16 03:22:42+00",13.3,15.3,,54.3,275,-502,-2,1016.63,53.2,0
"2017-11-16 03:27:42+00",11.5,13.5,,54.1,230,-446,-2,1016.62,53.1,0
"2017-11-16 03:32:42+00",10.1,11.1,,53.9,124,-412,-2,1016.63,52.9,0
"2017-11-16 03:37:42+00",11.7,12.7,,54,167,-476,-11,1016.55,53,0
"2017-11-16 03:42:42+00",12.1,14.1,,54,174,-479,-3,1016.51,53,0
"2017-11-16 03:47:42+00",12.5,14.5,,54.1,180,-502,-1,1016.56,53,0
"2017-11-16 03:52:42+00",12.6,14.6,,54.1,186,-503,-4,1016.4,53,0
"2017-11-16 03:57:42+00",12.4,14.4,,54.1,217,-492,-19,1016.3,53,0
"2017-11-16 04:02:42+00",12.3,13.3,,54.2,200,-494,-14,1016.33,52.9,0
"2017-11-16 04:07:42+00",11.5,13.5,,54,178,-461,-3,1016.34,52.8,0
"2017-11-16 04:12:42+00",11.8,14.8,,54,220,-454,-7,1016.34,52.9,0
"2017-11-16 04:17:42+00",13.0,14.0,,54.1,261,-504,-10,1016.1,52.9,0
"2017-11-16 04:22:42+00",13.0,15.0,,54.2,251,-499,-10,1016.18,53.1,0
"2017-11-16 04:27:42+00",12.9,14.9,,54.2,257,-495,-2,1016.12,53.1,0
"2017-11-16 04:32:42+00",13.7,16.7,,54.4,289,-514,-3,1016.07,53.3,0
"2017-11-16 04:37:42+00",13.1,16.1,,54.3,243,-513,-6,1016.05,53.3,0
"2017-11-16 04:42:42+00",13.6,16.6,,54.3,260,-532,-9,1016.08,53.4,0
"2017-11-16 04:47:42+00",12.6,14.6,,54.3,238,-483,-7,1015.95,53.4,0
"2017-11-16 04:52:42+00",13.0,15.0,,54.3,286,-491,-8,1015.95,53.4,0
"2017-11-16 04:57:42+00",11.9,14.9,,54.2,257,-453,-1,1015.9,53.4,0
"2017-11-16 05:02:42+00",13.7,16.7,,54.3,279,-531,-20,1015.87,53.4,0
"2017-11-16 05:07:42+00",13.2,15.2,,54.3,274,-499,-7,1015.88,53.5,0
"2017-11-16 05:12:42+00",11.5,13.5,,54.3,227,-443,-4,1015.85,53.4,0
"2017-11-16 05:17:42+00",10.1,11.1,,54.3,211,-366,6,1015.73,53.4,0
"2017-11-16 05:22:42+00",10.1,11.1,,54.2,215,-380,0,1015.74,53.4,0
"2017-11-16 05:27:42+00",10.0,12.0,,54.3,222,-381,-10,1015.61,53.5,0
"2017-11-16 05:32:42+00",11.6,13.6,,54.5,271,-435,-4,1015.62,53.5,0
"2017-11-16 05:37:42+00",9.5,10.5,,54.4,204,-355,-2,1015.49,53.5,0
"2017-11-16 05:42:42+00",9.8,11.8,,54.4,202,-361,0,1015.55,53.4,0
"2017-11-16 05:47:42+00",10.1,12.1,,54.4,186,-392,-9,1015.44,53.5,0
"2017-11-16 05:52:42+00",12.0,15.0,,54.4,200,-478,-7,1015.32,53.5,0
"2017-11-16 05:57:42+00",13.0,16.0,,54.5,90,-552,-22,1015.33,53.6,0
"2017-11-16 06:02:42+00",12.3,15.3,,54.4,180,-494,-14,1015.22,53.6,0
"2017-11-16 06:07:42+00",12.4,14.4,,54.5,244,-472,-11,1015.1,53.5,0
"2017-11-16 06:12:42+00",12.3,15.3,,54.6,204,-486,-7,1015.07,53.6,0
"2017-11-16 06:17:42+00",18.2,20.2,,54.6,318,-725,-10,1015.03,53.8,0
"2017-11-16 06:22:42+00",15.5,17.5,,54.1,272,-610,-13,1015.04,53.6,0
"2017-11-16 06:27:42+00",14.4,16.4,,54.1,317,-538,-13,1014.97,53.5,0
"2017-11-16 06:32:42+00",15.6,18.6,,54,277,-621,-8,1014.93,53.4,0
"2017-11-16 06:37:42+00",14.1,16.1,,53.9,246,-561,-12,1015.06,53.3,0
"2017-11-16 06:42:42+00",13.0,14.0,,53.7,268,-492,-2,1014.96,53.2,0
"2017-11-16 06:47:42+00",14.0,17.0,,53.6,332,-511,-7,1014.76,53.1,0
"2017-11-16 06:52:42+00",12.0,13.0,,53.6,268,-445,0,1014.72,53,0
"2017-11-16 06:57:42+00",12.0,13.0,,53.8,231,-457,-10,1014.78,53.1,0
"2017-11-16 07:02:42+00",12.2,14.2,,54.1,211,-476,-9,1014.78,53.4,0
"2017-11-16 07:07:42+00",12.2,15.2,,54.2,149,-488,-7,1014.67,53.5,0
"2017-11-16 07:12:42+00",11.4,13.4,,54.1,130,-479,-9,1014.68,53.5,0
"2017-11-16 07:17:42+00",11.5,12.5,,54.1,172,-462,-7,1014.69,53.4,0
"2017-11-16 07:22:42+00",10.5,12.5,,54.2,170,-416,-2,1014.68,53.4,0
"2017-11-16 07:27:42+00",10.3,12.3,,54.2,201,-398,6,1014.56,53.4,0
"2017-11-16 07:32:42+00",12.1,13.1,,54.2,226,-472,-7,1014.37,53.4,0
"2017-11-16 07:37:42+00",10.4,11.4,,54.1,200,-404,-7,1014.35,53.3,0
"2017-11-16 07:42:42+00",10.1,11.1,,53.9,221,-377,-9,1014.25,53.2,0
"2017-11-16 07:47:42+00",9.0,11.0,,53.9,231,-319,-3,1014.26,53.1,0
"2017-11-16 07:52:42+00",11.0,13.0,,54.1,258,-395,-9,1014.13,53.1,0
"2017-11-16 07:57:42+00",11.6,13.6,,54.4,240,-439,-7,1013.91,53.4,0
"2017-11-16 08:02:42+00",9.2,11.2,,54.3,105,-371,7,1013.9,53.6,0
"2017-11-16 08:07:42+00",9.0,12.0,,54,62,-386,-1,1013.82,53.4,0
"2017-11-16 08:12:42+00",11.2,13.2,,53.8,64,-477,-6,1013.76,53.4,0
"2017-11-16 08:17:42+00",10.1,12.1,,53.6,92,-413,-4,1013.59,53.3,0
"2017-11-16 08:22:42+00",12.3,14.3,,53.6,127,-513,-12,1013.45,53.2,0
"2017-11-16 08:27:42+00",11.9,13.9,,53.5,173,-480,-7,1013.45,53.1,0
"2017-11-16 08:32:42+00",11.9,13.9,,53.5,183,-478,-15,1013.34,53,0
"2017-11-16 08:37:42+00",11.8,13.8,,53.6,172,-483,-12,1013.22,53,0
"2017-11-16 08:42:42+00",11.1,14.1,,53.5,87,-464,-18,1013.42,52.9,0
"2017-11-16 08:47:42+00",10.4,13.4,,53.3,-76,-430,-13,1013.67,52.9,0
"2017-11-16 08:52:42+00",11.6,12.6,,53,-207,-444,12,1013.63,52.7,0
"2017-11-16 08:57:42+00",7.5,8.5,,52.8,-229,-247,6,1013.62,52.5,0
"2017-11-16 09:02:42+00",6.9,7.9,,52.7,-194,-240,4,1013.47,52.3,0
"2017-11-16 09:07:42+00",6.1,8.1,,52.6,-259,-91,1,1012.95,52.2,0
"2017-11-16 09:12:42+00",7.4,8.4,,53.1,-156,-272,-10,1012.89,52.2,0
"2017-11-16 09:17:42+00",7.8,9.8,,53.4,60,-329,-5,1013.01,52.5,0
"2017-11-16 09:22:42+00",8.1,9.1,,53.5,-74,-327,-15,1013.18,52.5,0
"2017-11-16 09:27:42+00",7.4,9.4,,53.3,-40,-302,-17,1013.08,52.5,0
"2017-11-16 09:32:42+00",8.1,10.1,,53.2,-50,-335,0,1013.05,52.4,0
"2017-11-16 09:37:42+00",6.6,8.6,,53.2,-73,-274,-6,1012.86,52.4,0
"2017-11-16 09:42:42+00",6.2,7.2,,53.1,-79,-245,-3,1012.73,52.3,0
"2017-11-16 09:47:42+00",8.0,10.0,,53,-61,-329,-9,1012.73,52.3,0
"2017-11-16 09:52:42+00",7.0,9.0,,53.4,-92,-268,-4,1012.7,52.3,0
"2017-11-16 09:57:42+00",6.4,7.4,,53.4,-128,-237,4,1012.68,52.3,0
"2017-11-16 10:02:42+00",5.3,5.3,,53.4,-97,-191,-1,1012.51,52.2,0
"2017-11-16 10:07:42+00",6.0,7.0,,53.4,-43,-245,0,1012.51,52.2,0
"2017-11-16 10:12:42+00",6.5,7.5,,53.3,-104,-248,-1,1012.49,52.1,0
"2017-11-16 10:17:42+00",7.6,7.6,,53.5,-103,-295,-6,1012.36,51.9,0
"2017-11-16 10:22:42+00",6.9,8.9,,53.5,-80,-280,-3,1012.29,52,0
"2017-11-16 10:27:42+00",7.9,8.9,,53.5,-59,-319,-8,1012.21,52.3,0
"2017-11-16 10:32:42+00",7.7,8.7,,53.5,-107,-305,-1,1012.16,52.4,0
"2017-11-16 10:37:42+00",8.3,10.3,,53.5,-113,-324,-3,1012.15,52.4,0
"2017-11-16 10:42:42+00",8.0,9.0,,53.4,-103,-316,1,1012.11,52.4,0
"2017-11-16 10:47:42+00",6.0,7.0,,53.4,-69,-237,1,1011.82,52.4,0
"2017-11-16 10:52:42+00",7.0,8.0,,53.4,-121,-267,0,1011.79,52.4,0
"2017-11-16 10:57:42+00",6.5,7.5,,53.3,-89,-257,-3,1011.84,52.3,0
"2017-11-16 11:02:42+00",7.6,8.6,,53.4,-137,-292,0,1011.86,52.3,0
"2017-11-16 11:07:42+00",8.2,9.2,,53.5,-178,-306,1,1011.82,52.3,0
"2017-11-16 11:12:42+00",7.5,8.5,,53.8,-204,-260,2,1011.86,52.4,0
"2017-11-16 11:17:42+00",6.2,7.2,,53.8,-191,-189,6,1011.7,52.4,0
"2017-11-16 11:22:42+00",9.7,10.7,,54.4,-335,-248,27,1011.79,52.4,0
"2017-11-16 11:27:42+00",6.8,7.8,,53.8,-219,-192,8,1011.68,52.3,0
"2017-11-16 11:32:42+00",6.3,7.3,,53.5,-271,-101,9,1011.7,52.1,0
"2017-11-16 11:37:42+00",5.4,5.4,,53.2,-188,-128,5,1011.49,52,0
"2017-11-16 11:42:42+00",6.7,6.7,,53.1,-268,-87,15,1011.56,51.9,0
"2017-11-16 11:47:42+00",6.6,6.6,,52.9,-235,-152,14,1011.6,51.7,0
"2017-11-16 11:52:42+00",6.7,7.7,,52.8,-237,-166,10,1011.61,51.7,0
"2017-11-16 11:57:42+00",6.6,6.6,,52.7,-273,-98,13,1011.62,51.7,0
"2017-11-16 12:02:42+00",7.9,8.9,,52.6,-333,-55,12,1011.65,51.7,0
"2017-11-16 12:07:42+00",8.2,9.2,,52.6,-356,-16,15,1011.58,51.8,0
"2017-11-16 12:12:42+00",7.2,8.2,,52.7,-316,-12,15,1011.59,51.8,0
"2017-11-16 12:17:42+00",6.3,7.3,,52.6,-276,4,12,1011.53,51.9,0
"2017-11-16 12:22:42+00",7.4,8.4,,52.5,-325,29,19,1011.7,51.8,0
"2017-11-16 12:27:42+00",11.7,14.7,,52.2,-516,102,16,1011.73,51.7,0
"2017-11-16 12:32:42+00",12.2,14.2,,51.8,-524,171,58,1011.77,51.6,0
"2017-11-16 12:37:42+00",12.5,13.5,,51.1,-529,194,41,1011.81,51.2,0
"2017-11-16 12:42:42+00",11.9,12.9,,51,-515,145,28,1011.7,51,0
"2017-11-16 12:47:42+00",11.8,12.8,,51.1,-525,89,30,1011.78,50.9,0
"2017-11-16 12:52:42+00",9.6,11.6,,51.2,-425,74,32,1011.79,50.8,0
"2017-11-16 12:57:42+00",9.2,10.2,,51.1,-401,83,28,1011.74,50.7,2.6
"2017-11-16 13:02:42+00",9.5,10.5,,51.1,-406,123,24,1011.75,50.7,15.6
"2017-11-16 13:07:42+00",11.5,12.5,,51.2,-501,134,31,1011.82,50.7,6.3
"2017-11-16 13:12:42+00",10.5,11.5,,51.2,-450,126,30,1011.8,50.5,2.8
"2017-11-16 13:17:42+00",10.2,11.2,,51.1,-439,150,25,1011.74,50.5,0
"2017-11-16 13:22:42+00",9.1,10.1,,50.9,-377,143,29,1011.74,50.5,0.1
"2017-11-16 13:27:42+00",8.0,9.0,,50.7,-341,113,28,1011.78,50.5,28.5
"2017-11-16 13:32:42+00",9.6,10.6,,50.6,-418,105,20,1011.76,50.5,19.9
"2017-11-16 13:37:42+00",8.9,9.9,,50.7,-376,124,19,1011.69,50.6,72.4
"2017-11-16 13:42:42+00",9.6,11.6,,50.7,-403,148,25,1011.64,50.8,107.8
"2017-11-16 13:47:42+00",10.7,11.7,,50.9,-463,144,40,1011.61,50.8,90.4
"2017-11-16 13:52:42+00",11.4,13.4,,50.9,-491,152,31,1011.58,50.7,91.4
"2017-11-16 13:57:42+00",11.3,12.3,,51,-474,163,27,1011.4,50.7,102.6
"2017-11-16 14:02:42+00",10.4,12.4,,51.1,-452,155,78,1011.28,51,234.6
"2017-11-16 14:07:42+00",12.2,13.2,,51.2,-536,119,50,1011.2,51.6,277.3
"2017-11-16 14:12:42+00",11.1,12.1,,51.2,-486,101,43,1011.08,52.2,236.4
"2017-11-16 14:17:42+00",10.9,12.9,,51.1,-483,91,34,1010.9,52.3,165.2
"2017-11-16 14:22:42+00",10.3,12.3,,51.1,-448,102,62,1011,52.3,127.6
"2017-11-16 14:27:42+00",10.2,11.2,,51.1,-449,41,36,1010.97,52.1,96.3
"2017-11-16 14:32:42+00",10.7,11.7,,51,-471,82,43,1010.98,51.9,78.4
"2017-11-16 14:37:42+00",11.6,12.6,,50.8,-502,134,30,1010.97,51.6,95
"2017-11-16 14:42:42+00",10.6,12.6,,50.9,-462,96,32,1011.1,51.6,148.6
"2017-11-16 14:47:42+00",11.4,13.4,,50.9,-489,165,61,1011.04,51.7,110.8
"2017-11-16 14:52:42+00",11.9,12.9,,50.8,-521,126,21,1010.9,51.7,126.2
"2017-11-16 14:57:42+00",10.5,12.5,,50.8,-470,68,62,1010.83,51.6,79.2
"2017-11-16 15:02:42+00",10.6,12.6,,50.9,-466,48,22,1010.92,51.6,98.2
"2017-11-16 15:07:42+00",11.2,12.2,,51.1,-489,25,23,1010.73,51.5,46.5
"2017-11-16 15:12:42+00",9.8,11.8,,51.2,-415,-23,49,1010.84,51.5,43.3
"2017-11-16 15:17:42+00",10.7,13.7,,51.3,-469,31,25,1010.93,51.5,52.4
"2017-11-16 15:22:42+00",11.0,13.0,,51.6,-470,10,63,1010.9,51.6,54.2
"2017-11-16 15:27:42+00",12.2,14.2,,51.8,-535,78,44,1010.85,51.7,59.3
"2017-11-16 15:32:42+00",13.5,15.5,,52,-607,81,39,1010.78,51.8,66.4
"2017-11-16 15:37:42+00",11.4,13.4,,52.1,-497,47,32,1010.71,52,69
"2017-11-16 15:42:42+00",10.6,12.6,,52.1,-456,-37,24,1010.57,52.2,212.9
"2017-11-16 15:47:42+00",13.6,14.6,,52.4,-598,112,58,1010.39,52.9,296.4
"2017-11-16 15:52:42+00",14.7,16.7,,52.8,-644,112,25,1010.11,53.6,306.2
"2017-11-16 15:57:42+00",13.6,15.6,,53.1,-601,76,40,1010.03,54,246.8
"2017-11-16 16:02:42+00",13.9,14.9,,53.3,-608,132,34,1009.94,54.4,301.9
"2017-11-16 16:07:42+00",12.8,14.8,,53.3,-561,108,62,1009.82,54.8,225.7
"2017-11-16 16:12:42+00",11.7,13.7,,53.5,-518,95,47,1009.68,55,216.6
"2017-11-16 16:17:42+00",12.7,15.7,,53.5,-567,127,45,1009.59,55.2,336
"2017-11-16 16:22:42+00",12.2,13.2,,53.7,-533,121,36,1009.6,55.1,221.5
"2017-11-16 16:27:42+00",10.4,13.4,,53.7,-457,99,41,1009.55,55,136.9
"2017-11-16 16:32:42+00",12.5,15.5,,53.9,-544,140,58,1009.5,55.2,274.4
"2017-11-16 16:37:42+00",14.5,16.5,,54.1,-631,193,37,1009.26,55.5,294.5
"2017-11-16 16:42:42+00",12.6,13.6,,54.2,-527,199,49,1009.12,55.8,292.5
"2017-11-16 16:47:42+00",13.2,14.2,,54.7,-575,175,41,1008.97,56.3,288.6
"2017-11-16 16:52:42+00",14.4,16.4,,54.8,-611,221,36,1008.92,56.5,288
"2017-11-16 16:57:42+00",18.0,21.0,,55.4,-788,201,61,1008.86,56.8,289.6
"2017-11-16 17:02:42+00",16.3,19.3,,55.6,-712,194,69,1008.73,56.9,288.7
"2017-11-16 17:07:42+00",18.3,19.3,,56,-801,206,58,1008.69,57.2,288.7
"2017-11-16 17:12:42+00",18.8,21.8,,56.3,-814,239,62,1008.7,57.4,289.9
"2017-11-16 17:17:42+00",16.3,20.3,,56.2,-699,223,60,1008.59,57.5,286.6
"2017-11-16 17:22:42+00",17.8,23.8,,56,-775,197,53,1008.57,57.5,287.2
"2017-11-16 17:27:42+00",19.3,23.3,,56.4,-855,173,57,1008.43,57.5,291
"2017-11-16 17:32:42+00",21.2,23.2,,56.7,-911,277,71,1008.43,57.7,288.4
"2017-11-16 17:37:42+00",22.1,28.1,,56.7,-909,401,56,1008.35,57.8,284.9
"2017-11-16 17:42:42+00",21.9,24.9,,56,-909,394,49,1008.3,57.4,282.9
"2017-11-16 17:47:42+00",18.5,21.5,,56.5,-799,252,68,1008.19,57.5,208.7
"2017-11-16 17:52:42+00",18.5,21.5,,56.5,-806,255,46,1008.27,57.6,290.3
"2017-11-16 17:57:42+00",22.5,26.5,,56.8,-933,399,68,1008.2,57.7,282.7
"2017-11-16 18:02:42+00",26.7,29.7,,56.8,-1168,307,80,1008.04,57.6,272.4
"2017-11-16 18:07:42+00",28.6,33.6,,56.5,-1260,342,72,1008.09,56.9,58.6
"2017-11-16 18:12:42+00",26.3,29.3,,56.8,-1102,393,67,1008.26,56.8,283.9
"2017-11-16 18:17:42+00",25.4,29.4,,56.7,-1098,327,88,1008.19,56.9,253.9
"2017-11-16 18:22:42+00",21.7,24.7,,56.8,-959,248,72,1008.26,57.2,259.7
"2017-11-16 18:27:42+00",26.9,29.9,,56.9,-1153,347,65,1008.22,57.4,223.1
"2017-11-16 18:32:42+00",24.7,28.7,,56.7,-1057,349,86,1008.21,57.3,92.8
"2017-11-16 18:37:42+00",24.3,27.3,,56.2,-1038,361,72,1008.23,56.8,97
"2017-11-16 18:42:42+00",22.1,25.1,,56.3,-947,307,64,1008.16,56.4,140.1
"2017-11-16 18:47:42+00",25.3,28.3,,56.8,-1098,329,82,1008.05,56.7,140.8
"2017-11-16 18:52:42+00",22.0,28.0,,57.1,-935,336,84,1008.16,57.2,220
"2017-11-16 18:57:42+00",22.5,25.5,,56.7,-965,311,62,1008.13,57.4,18.3
"2017-11-16 19:02:42+00",19.9,22.9,,56.5,-863,259,56,1008.16,57,40.5
"2017-11-16 19:07:42+00",23.3,26.3,,56.8,-1008,267,65,1008.13,56.8,31.9
"2017-11-16 19:12:42+00",21.9,25.9,,56.6,-939,330,74,1008.13,56.9,18.9
"2017-11-16 19:17:42+00",27.9,31.9,,57.4,-1193,426,82,1008.09,57.2,203.9
"2017-11-16 19:22:42+00",27.0,30.0,,57.9,-1137,446,68,1008.15,57.9,194.1
"2017-11-16 19:27:42+00",25.7,28.7,,57.8,-1108,320,70,1008.13,58,177.4
"2017-11-16 19:32:42+00",23.8,28.8,,57.7,-1056,197,99,1008.17,58,170
"2017-11-16 19:37:42+00",20.9,23.9,,57.5,-911,208,93,1008.17,58,162.9
"2017-11-16 19:42:42+00",27.4,31.4,,57.6,-1213,166,51,1008.07,57.9,152.7
"2017-11-16 19:47:42+00",27.2,30.2,,57.5,-1183,301,70,1008.01,57.7,147
"2017-11-16 19:52:42+00",23.1,26.1,,57.3,-992,322,77,1008.19,57.6,135.8
"2017-11-16 19:57:42+00",23.0,27.0,,57.1,-998,286,70,1008.34,57.2,116.1
"2017-11-16 20:02:42+00",26.3,31.3,,57.2,-1095,446,62,1008.36,56.7,0.4
"2017-11-16 20:07:42+00",26.7,31.7,,57.6,-1147,380,95,1008.45,56.9,113.6
"2017-11-16 20:12:42+00",24.1,27.1,,57.1,-1023,387,82,1008.55,56.8,0.6
"2017-11-16 20:17:42+00",22.9,26.9,,57.2,-982,295,73,1008.59,56.6,1.9
"2017-11-16 20:22:42+00",22.0,25.0,,57.1,-947,318,75,1008.73,56.6,46.5
"2017-11-16 20:27:42+00",22.5,25.5,,57.2,-983,258,58,1008.65,56.8,73.2
"2017-11-16 20:32:42+00",15.9,19.9,,56.8,-676,220,62,1008.77,56.9,71.3
"2017-11-16 20:37:42+00",21.7,26.7,,56.6,-944,307,51,1008.73,56.6,0.7
"2017-11-16 20:42:42+00",24.7,27.7,,56.5,-1066,313,75,1008.77,56.1,56.9
"2017-11-16 20:47:42+00",22.3,26.3,,56.5,-945,342,67,1008.67,55.9,59.6
"2017-11-16 20:52:42+00",23.6,27.6,,56.7,-972,453,66,1009.04,56,46.7
"2017-11-16 20:57:42+00",24.3,27.3,,56.5,-1023,388,72,1009.07,56,2
"2017-11-16 21:02:42+00",22.6,25.6,,55.9,-921,417,53,1009.15,55.6,0
"2017-11-16 21:07:42+00",20.3,22.3,,55.6,-855,347,40,1009.19,55.2,0
"2017-11-16 21:12:42+00",18.8,20.8,,55.3,-773,331,38,1009.27,54.9,0
"2017-11-16 21:17:42+00",16.7,18.7,,55,-658,365,45,1009.44,54.5,0
"2017-11-16 21:22:42+00",16.6,19.6,,55.2,-587,465,65,1009.58,54.4,0
"2017-11-16 21:27:42+00",21.6,24.6,,55.4,-807,529,58,1009.7,54.5,0
"2017-11-16 21:32:42+00",22.6,24.6,,55.4,-849,543,66,1009.8,54.4,0
"2017-11-16 21:37:42+00",20.9,23.9,,55.1,-768,541,42,1009.84,54.1,0
"2017-11-16 21:42:42+00",16.4,19.4,,54.7,-657,338,50,1009.92,53.9,0
"2017-11-16 21:47:42+00",17.2,21.2,,54.5,-706,350,69,1009.9,53.7,0
"2017-11-16 21:52:42+00",16.7,18.7,,54.2,-692,307,38,1010.03,53.5,0
"2017-11-16 21:57:42+00",16.3,19.3,,53.8,-678,292,38,1010.12,53.1,0
"2017-11-16 22:02:42+00",15.3,17.3,,53.5,-650,243,47,1010.19,52.8,0
"2017-11-16 22:07:42+00",15.7,16.7,,53.4,-684,205,48,1010.22,52.5,0
"2017-11-16 22:12:42+00",15.6,17.6,,53.6,-683,214,58,1010.42,52.6,0
"2017-11-16 22:17:42+00",14.3,16.3,,53.1,-583,233,35,1010.63,52.4,0
"2017-11-16 22:22:42+00",17.2,19.2,,52.7,-360,669,40,1011.05,52,0
"2017-11-16 22:27:42+00",21.4,26.4,,52,-537,815,67,1011.17,51.3,0
"2017-11-16 22:32:42+00",21.8,23.8,,51.8,-521,807,55,1011.31,51,0
"2017-11-16 22:37:42+00",18.3,21.3,,51.5,-446,674,54,1011.47,50.8,0
"2017-11-16 22:42:42+00",15.1,17.1,,51.1,-436,523,49,1011.5,50.4,0
"2017-11-16 22:47:42+00",19.0,21.0,,51.3,-532,653,52,1011.55,50.3,0
"2017-11-16 22:52:42+00",17.0,20.0,,51,-499,572,47,1011.53,50.2,0
"2017-11-16 22:57:42+00",12.2,14.2,,50.8,-321,435,36,1011.59,50.1,0
"2017-11-16 23:02:42+00",12.3,14.3,,50.6,-319,450,27,1011.62,49.7,0
"2017-11-16 23:07:42+00",12.4,14.4,,50.2,-288,454,35,1011.7,49.3,0
"2017-11-16 23:12:42+00",11.6,13.6,,49.9,-321,412,39,1011.77,49,0
"2017-11-16 23:17:42+00",11.5,13.5,,49.7,-320,392,33,1011.82,48.8,0
"2017-11-16 23:22:42+00",13.8,15.8,,49.7,-393,484,36,1011.83,48.7,0
"2017-11-16 23:27:42+00",15.3,17.3,,49.9,-442,522,39,1011.87,48.9,0
"2017-11-16 23:32:42+00",14.0,16.0,,49.8,-409,460,46,1011.92,48.9,0
"2017-11-16 23:37:42+00",13.1,15.1,,49.8,-428,404,43,1012,49,0
"2017-11-16 23:42:42+00",12.3,14.3,,49.8,-469,301,39,1012.07,49,0
"2017-11-16 23:47:42+00",13.0,15.0,,49.7,-485,325,35,1012.09,48.9,0
"2017-11-16 23:52:42+00",16.5,19.5,,49.9,-628,393,49,1012.09,48.8,0
"2017-11-16 23:57:42+00",17.6,19.6,,50,-620,467,58,1012.21,49.1,0
